SCP
-0 -0 -0 -0 -0 -0 0 -0 -0 0 0 -0 -0 -0 -0 -0 -0 -0 -0 -0 0 0 0 0 0 0 0 0 0 0 0 0 0 0 0 0 0 0 0 0 0 0 0 0 0 0 0
0 -0 -0 -0 -0 -0 0 -0 -0 -0 -0 -0 0 -0 0 0 -0 0 0 0 0 0 0 0 0 -0 0 0 0 0 0 0 0 0 0 0 0 0 0 0 0 0 0 0 0 0 0
0 -0 -0 -0 -0 -0 -0 -0 0 -0 -0 0 -0 -0 -0 -0 -0 -0 -0 -0 -0 0 0 0 0 0 0 0 0 0 0 0 0 0 0 0 0 0 0 0 0 0 0 0 0 0 0
0 -0 -0 -0 -0 -0 -0 0 0 0 0 -0 -0 0 0 -0 -0 -0 -0 -0 0 0 0 0 0 0 0 -0 -0 0 0 0 0 0 0 0 0 0 0 0 0 0 0 0 0 0 0
0 0 0 -0 -0 -0 -0 -0 -0 -0 -0 -0 -0 -0 -0 -0 -0 -0 -0 -0 0 0 0 0 0 0 0 0 0 -0 0 0 0 0 0 0 0 0 0 0 0 0 0 0 0 0 0
0 0 0 0 -0 -0 0 0 -0 -0 -0 -0 -0 -0 -0 -0 -0 -0 -0 0 0 0 0 0 0 0 0 0 0 0 0 -0 0 0 0 0 0 0 0 0 0 0 0 0 0 0 0
0 0 0 0 0 0 0 0 0 -0 -0 0 0 -0 -0 -0 -0 -0 -0 -0 0 0 -0 0 0 -0 0 -0 0 0 0 0 0 0 0 0 0 0 0 0 0 0 0 0 0 0 0
0 0 0 0 0 0 0 0 0 0 0 0 0 0 -0 -0 -0 -0 -0 0 0 0 0 0 -0 0 0 0 0 0 0 0 0 0 0 0 0 0 0 0 0 0 0 0 0 0 0
0 0 0 0 0 0 0 0 0 0 0 0 0 -0 -0 -0 -0 -0 -0 0 -0 -0 0 0 -0 0 -0 0 0 0 0 0 0 0 0 0 0 0 0 0 0 0 0 0 0 0 0
0 0 0 0 0 0 0 0 0 0 0 0 0 -0 -0 -0 -0 -0 0 -0 -0 0 0 0 0 0 0 0 0 0 0 0 0 0 0 0 0 0 0 0 0 0 0 0 0 0 0
0 0 0 0 0 0 0 0 0 0 0 0 -0 -0 -0 0 0 0 -0 0 -0 0 0 0 0 0 0 0 0 0 0 0 0 0 0 0 0 0 0 0 0 0 0 0 0 -0 -0
0 0 0 0 0 0 0 0 0 0 0 0 -0 -0 -0 0 -0 -0 0 0 0 0 0 0 0 0 0 0 0 0 0 0 0 0 0 0 0 0 0 0 0 0 0 0 0 0 0
0 0 0 0 0 0 0 0 0 0 0 0 0 -0 0 0 0 0 0 0 0 0 0 0 0 0 0 0 0 0 0 0 0 0 0 0 0 0 0 0 0 0 0 -0 -0 0 0
0 0 0 0 0 0 0 0 0 0 0 0 0 0 0 0 0 0 0 0 0 0 0 0 0 0 0 0 0 0 0 0 0 0 0 0 0 0 0 0 0 0 0 0 0 -0 -0
0 0 0 0 0 0 0 0 0 0 0 0 0 0 0 0 0 0 0 0 0 0 0 0 0 0 0 0 0 0 0 0 0 0 0 0 0 0 0 0 0 -0 0 0 0 0 -0
0 0 0 0 0 0 0 0 0 0 0 0 0 0 0 0 0 0 0 0 0 0 0 0 0 0 0 0 0 0 0 0 0 0 0 0 0 0 0 -0 0 0 0 0 0 0 -0
0 0 0 0 0 0 0 0 0 0 0 0 0 0 0 0 0 0 0 0 0 0 0 0 0 0 0 0 0 0 0 0 0 0 0 0 0 0 0 0 0 0 0 0 0 0 0
0 0 0 0 0 0 0 0 0 0 0 0 0 0 0 0 0 0 0 0 0 0 0 0 0 0 0 0 0 0 0 0 0 0 0 0 0 0 0 0 0 0 0 0 0 0 0
0 0 0 0 0 0 0 0 0 0 0 0 0 0 0 0 0 0 0 0 0 0 0 0 0 0 0 0 0 0 0 0 0 0 0 0 0 0 0 0 0 -0 -0 0 0 0 0
0 0 0 0 0 0 0 0 0 0 0 0 0 0 0 0 0 0 0 0 0 0 0 0 0 0 0 0 0 0 0 0 0 0 0 0 0 0 0 0 0 0 0 0 0 0 -0
0 0 0 0 0 0 0 0 0 0 0 0 0 0 0 0 0 0 0 0 0 0 0 0 0 0 0 0 0 0 0 0 0 0 0 0 0 0 0 0 0 0 -0 0 0 -0 -0
0 0 0 0 0 0 0 0 0 0 0 0 0 0 0 0 0 0 0 0 0 0 0 0 0 0 0 0 0 0 0 0 0 0 0 0 0 0 0 0 0 0 -0 -0 -0 -0 -0
0 0 0 0 0 0 0 0 0 0 0 0 0 0 0 0 0 0 0 0 0 0 0 0 0 0 0 0 0 0 0 0 0 0 0 0 0 0 0 0 0 0 -0 0 0 -0 -0
0 0 0 0 0 0 0 0 0 0 0 0 0 0 0 0 0 0 0 0 0 0 0 0 0 0 0 0 0 0 0 0 0 0 0 0 0 0 0 0 0 0 -0 0 0 0 0
0 0 0 0 0 0 0 0 0 0 0 0 0 0 0 0 0 0 0 0 0 0 0 0 0 0 0 0 0 0 0 0 0 0 0 0 0 0 0 0 0 -0 0 0 0 0 0
0 0 0 0 0 0 0 0 0 0 0 0 0 0 0 0 0 0 0 0 0 0 0 0 0 0 0 0 0 0 0 0 0 0 0 0 0 0 0 0 0 0 0 0 0 0 0
0 0 0 0 0 0 0 0 0 0 0 0 0 0 0 0 0 0 0 0 0 0 0 0 0 0 0 0 0 0 0 0 0 0 0 0 0 0 0 0 0 0 0 0 0 0 0
0 0 0 0 0 0 0 0 0 0 0 0 0 0 0 0 0 0 0 0 0 0 0 0 0 0 0 0 0 0 0 0 0 0 0 0 0 0 0 0 0 0 -0 -0 0 0 0
0 0 0 0 0 0 0 0 0 0 0 0 0 0 0 0 0 0 0 0 0 0 0 0 0 0 0 0 0 0 0 0 0 0 0 0 0 0 0 0 0 -0 0 0 0 0 0
Wind_Speed_500mb
24 21 19 18 14 12 9 8 7 6 7 7 7 8 9 10 11 10 9 8 8 9 11 14 16 19 21 23 21 26 32 24 21 22 26 31 32 27 11 24 38 10 18 51 60 57 52
23 22 19 18 17 14 11 7 6 6 6 6 7 8 9 11 12 11 10 10 10 10 11 22 30 20 13 14 23 23 25 35 35 33 24 26 20 23 23 19 15 34 45 46 49 55 51
24 21 18 17 16 11 7 3 4 4 4 4 5 7 9 11 13 13 12 11 11 11 15 25 24 34 31 15 17 20 19 21 17 18 21 17 17 17 27 17 22 42 24 30 35 37 29
22 19 17 15 15 10 4 3 4 5 5 6 7 8 9 10 13 13 12 14 16 20 26 27 28 27 17 28 19 19 27 23 24 23 24 23 19 17 10 17 19 15 12 9 4 24 35
21 19 18 15 14 10 3 2 5 6 6 6 7 8 8 10 11 13 19 23 30 31 29 24 28 16 10 16 20 19 31 30 29 31 27 15 15 7 11 5 8 9 12 21 22 26 20
23 20 15 13 10 7 4 1 6 5 5 6 7 9 9 9 10 16 30 37 31 23 18 21 21 14 18 13 15 17 28 31 28 37 27 6 13 5 9 10 8 17 27 29 29 25 38
26 19 14 12 11 8 6 2 4 2 3 5 7 10 9 11 12 16 18 13 10 14 32 21 22 28 12 10 9 14 35 24 34 30 13 26 9 10 17 16 18 15 22 26 30 30 26
25 19 16 14 12 9 8 5 5 2 2 5 6 8 10 15 14 12 9 11 14 14 13 12 16 16 9 15 18 25 35 27 26 13 28 13 8 19 29 28 28 18 24 30 29 29 31
24 21 19 16 14 10 8 6 3 1 3 5 6 6 11 16 18 16 13 14 17 20 9 7 6 7 4 11 5 13 25 20 17 14 19 9 15 37 31 27 31 21 22 25 35 38 28
24 23 23 21 16 7 5 5 3 2 1 3 4 5 13 17 13 7 6 8 25 12 9 10 10 1 4 17 3 19 20 13 11 16 15 10 26 27 28 22 22 23 18 28 30 28 16
25 24 19 18 14 8 5 5 5 5 1 2 5 6 10 9 7 5 7 7 20 5 8 8 9 7 13 13 4 19 28 16 8 16 14 14 26 27 23 31 26 15 28 13 19 27 17
28 24 18 14 11 8 3 5 5 6 1 3 7 14 18 14 8 3 4 17 12 10 4 8 7 8 6 17 12 16 23 26 21 11 18 25 36 13 11 31 18 25 30 27 19 7 9
27 21 17 16 13 9 5 6 7 5 3 5 10 12 8 14 8 5 11 10 9 7 8 12 5 5 4 7 8 11 10 12 8 11 14 16 14 8 51 34 26 28 21 8 8 7 5
27 25 22 25 19 11 7 8 9 6 5 9 10 10 12 8 10 17 11 8 12 10 7 4 5 7 7 6 6 2 6 5 12 13 5 9 14 23 43 25 24 24 10 2 10 6 18
28 24 24 24 18 12 13 10 9 8 9 15 18 17 11 8 13 13 9 9 13 9 7 4 7 6 6 11 4 9 5 7 8 9 8 6 6 31 25 36 15 14 9 16 8 8 10
29 25 25 27 19 17 13 10 10 10 14 19 14 13 6 10 11 13 8 5 5 13 8 3 4 7 8 12 9 9 3 5 9 13 15 8 12 11 28 34 24 21 23 7 7 7 9
30 27 20 24 23 18 12 11 12 13 18 16 14 6 4 7 6 10 7 6 9 15 13 13 11 7 7 9 10 11 6 9 12 5 9 4 7 10 14 12 28 28 9 10 4 6 7
32 31 28 24 22 18 14 12 13 17 23 16 0 7 7 4 8 2 2 3 3 16 9 8 6 3 6 12 7 8 7 8 9 4 9 5 8 4 24 26 21 25 10 6 5 11 4
34 33 28 29 24 18 16 15 17 23 28 14 4 9 9 6 5 4 4 8 8 7 8 9 2 6 7 5 7 9 8 14 14 7 3 4 4 9 12 9 8 4 5 7 7 6 10
31 33 29 28 26 19 17 16 20 27 23 11 4 4 3 3 3 5 9 10 8 7 11 9 4 11 5 4 8 8 12 12 28 29 16 13 10 14 13 20 7 13 14 14 13 5 16
35 34 28 27 26 22 17 17 20 27 25 13 7 6 6 2 6 7 1 4 12 8 7 4 2 11 10 3 8 10 11 16 26 24 17 5 4 6 12 23 30 36 36 36 23 23 15
37 33 30 27 28 23 19 18 22 28 23 10 8 8 5 3 17 11 8 4 6 7 15 10 11 12 9 3 6 10 9 9 6 10 9 7 4 11 30 26 32 36 37 42 32 36 38
36 35 32 30 27 25 20 18 20 29 25 9 10 3 1 6 4 7 9 10 7 5 10 8 5 7 5 5 16 22 28 31 27 11 7 7 2 3 12 16 24 18 16 7 9 22 12
36 33 31 30 31 28 25 22 24 32 24 22 12 9 7 4 3 8 11 11 8 7 9 3 9 7 6 13 26 25 32 35 36 34 36 10 6 5 13 20 4 14 12 3 10 4 5
37 37 34 32 31 29 25 24 26 28 28 21 16 11 8 1 9 15 17 15 6 2 4 9 21 6 6 16 9 12 9 11 9 16 23 37 10 3 4 5 19 18 9 9 9 1 18
40 39 36 36 33 31 27 25 26 28 30 21 18 12 9 7 5 11 12 4 9 7 6 3 17 9 13 9 7 2 5 8 6 6 11 22 24 14 1 3 7 6 12 40 39 4 24
45 45 45 44 39 35 32 25 28 29 30 28 20 20 12 5 6 4 7 5 5 7 6 6 6 13 13 4 3 6 7 7 6 10 6 1 5 13 6 8 11 2 21 42 8 12 19
35 39 42 43 49 44 34 28 24 30 33 33 25 21 18 11 16 16 15 13 15 4 8 13 7 3 6 4 4 7 4 7 5 7 7 9 9 7 3 5 13 17 29 7 15 29 6
28 28 27 33 34 49 37 30 24 27 31 28 25 17 24 20 11 7 14 25 35 19 5 24 11 11 16 5 3 4 5 6 5 6 3 8 9 6 10 12 15 41 44 39 12 23 29
Wind_Direction_500mb
165 154 151 143 147 136 141 128 101 82 66 48 32 11 4 354 350 4 11 18 23 36 52 73 103 118 91 75 48 358 7 23 14 33 27 14 22 5 5 324 327 309 335 323 316 318 318
160 156 157 157 152 147 141 136 111 86 62 39 20 4 350 346 354 4 3 13 22 41 72 99 85 92 74 82 43 20 11 1 15 14 18 20 2 335 291 299 305 319 326 319 312 307 309
162 162 162 160 148 146 152 143 99 75 50 29 11 3 352 348 356 8 15 27 52 69 87 115 90 92 76 64 72 5 26 35 352 5 355 346 331 336 332 315 312 317 307 300 286 293 294
168 168 165 164 150 158 177 111 67 40 38 21 14 11 8 1 4 25 39 68 70 90 107 110 86 83 79 65 56 14 12 14 27 359 340 352 336 294 254 295 301 299 286 313 326 253 257
172 175 176 170 156 156 202 94 73 58 46 28 9 25 21 24 29 56 81 91 84 93 101 100 74 56 63 23 9 56 358 3 3 338 311 277 311 288 297 246 325 285 280 300 304 320 341
180 176 179 170 172 198 238 123 84 59 35 21 17 27 35 48 55 104 105 89 89 71 72 65 67 97 42 15 33 39 359 347 348 342 355 285 209 317 318 47 333 323 325 321 317 325 322
194 206 199 188 189 198 194 192 115 92 37 40 29 39 61 62 77 118 137 115 86 65 66 67 77 90 56 27 349 48 10 6 11 6 22 339 353 306 307 333 318 318 312 308 307 313 313
205 207 189 182 180 183 202 176 156 139 38 41 30 50 89 93 101 122 152 93 92 121 98 94 93 80 59 16 25 12 10 20 1 3 357 8 317 332 327 318 310 318 312 304 308 316 327
204 196 182 183 181 188 209 208 183 127 16 24 28 53 117 119 99 94 122 95 154 143 127 78 140 83 121 28 29 11 23 13 342 5 351 338 305 344 338 339 329 321 307 321 328 332 312
196 187 177 171 178 185 198 191 190 234 333 22 45 83 138 128 92 83 44 147 157 134 84 149 201 127 347 318 120 76 18 35 339 349 338 350 341 318 316 308 305 302 325 313 337 343 309
178 174 182 187 196 197 205 194 212 225 223 36 47 97 126 124 100 127 268 134 154 120 77 236 100 94 334 95 278 56 18 357 3 22 14 289 340 345 353 348 347 312 338 338 300 289 309
181 175 177 187 194 200 212 182 204 208 189 85 101 127 109 76 91 336 113 127 134 58 240 177 156 170 20 85 9 26 10 359 52 26 1 319 306 48 21 343 332 327 346 319 293 240 259
188 188 196 210 210 214 222 193 193 200 169 122 123 136 139 146 192 100 120 80 45 107 256 151 114 78 273 71 55 25 350 54 75 37 349 319 9 105 21 345 337 359 341 336 333 359 239
189 191 202 204 213 210 205 177 185 177 169 130 120 115 86 66 130 126 92 59 75 206 261 57 146 260 213 107 96 301 330 94 79 75 356 355 336 20 339 340 341 322 332 188 297 310 297
199 205 205 206 206 207 174 168 182 163 161 138 116 90 46 32 128 110 93 71 186 225 49 40 280 274 93 116 152 46 330 106 118 107 119 333 263 321 322 354 332 314 7 299 262 277 275
201 211 216 211 205 187 174 178 178 161 155 143 123 122 13 104 99 93 80 186 99 46 82 244 18 50 9 15 33 359 2 150 114 127 145 242 295 321 344 322 335 337 313 4 352 331 304
208 196 183 182 183 189 179 172 172 162 154 152 139 136 15 114 102 79 123 207 103 85 31 18 39 29 10 14 360 350 332 96 83 23 318 43 107 305 341 332 316 321 35 346 305 1 309
182 193 194 200 198 198 177 166 165 158 151 150 68 82 44 187 25 100 170 60 37 121 71 85 43 359 24 22 329 338 353 50 135 55 4 117 161 298 307 301 72 60 7 5 91 314 268
193 201 207 205 204 198 178 168 164 161 157 162 75 95 92 80 113 303 129 85 354 90 166 137 114 112 61 348 331 314 1 317 327 98 30 48 324 341 324 350 354 299 289 225 204 190 228
191 191 192 194 194 192 183 171 165 168 164 136 98 76 124 134 238 244 175 152 144 42 6 87 30 43 352 271 276 304 339 338 356 348 318 190 181 175 260 244 242 305 283 259 202 160 260
191 196 195 197 200 190 185 174 171 171 163 144 137 185 197 193 275 278 250 187 176 143 191 117 352 207 230 257 345 285 311 327 329 328 1 350 211 191 244 264 285 286 286 286 272 251 226
187 184 187 185 180 184 176 166 169 172 155 127 126 144 193 274 149 208 106 314 253 207 157 188 167 279 39 84 222 268 345 11 269 2 349 343 294 321 293 283 280 288 300 283 279 271 262
189 190 189 192 195 193 179 166 167 167 164 126 119 159 123 308 160 133 180 187 213 245 98 158 29 38 3 5 351 315 299 287 269 257 270 271 188 31 264 304 314 300 266 310 318 343 302
193 195 194 195 198 195 186 174 172 173 171 154 116 95 131 276 265 206 192 227 268 146 166 141 178 211 64 348 321 305 282 270 253 239 227 224 210 169 280 312 311 242 354 96 17 44 350
196 197 197 194 194 194 194 185 181 184 180 173 146 135 116 165 326 308 255 171 206 20 225 236 265 145 45 42 17 349 328 4 273 230 215 211 179 220 227 255 269 293 344 332 303 165 319
209 206 203 199 196 194 194 197 191 191 185 172 162 167 155 150 240 308 315 234 169 181 257 184 91 85 64 77 70 209 258 211 299 289 217 216 203 198 196 249 264 252 304 312 298 172 305
212 214 212 209 204 203 202 196 195 199 191 186 176 174 183 198 265 336 5 321 22 124 115 80 121 89 135 115 151 213 245 256 230 187 206 268 329 197 203 227 260 200 319 325 55 249 253
195 199 209 211 210 205 203 201 203 196 193 197 201 198 213 210 252 258 250 287 309 347 141 145 65 168 67 110 160 252 230 249 300 278 279 202 195 211 180 169 268 3 344 342 254 306 352
179 184 194 203 201 199 201 201 201 193 194 200 209 205 214 234 255 249 255 260 248 242 279 180 180 155 160 128 281 328 320 332 306 273 250 285 185 223 193 217 248 306 299 303 1 12 350
Wind_Speed_850mb
24 21 19 18 14 12 9 8 7 6 7 7 7 8 9 10 11 10 9 8 8 9 11 14 16 19 21 23 21 26 32 24 21 22 26 31 32 27 11 24 38 10 18 51 60 57 52
23 22 19 18 17 14 11 7 6 6 6 6 7 8 9 11 12 11 10 10 10 10 11 22 30 20 13 14 23 23 25 35 35 33 24 26 20 23 23 19 15 34 45 46 49 55 51
24 21 18 17 16 11 7 3 4 4 4 4 5 7 9 11 13 13 12 11 11 11 15 25 24 34 31 15 17 20 19 21 17 18 21 17 17 17 27 17 22 42 24 30 35 37 29
22 19 17 15 15 10 4 3 4 5 5 6 7 8 9 10 13 13 12 14 16 20 26 27 28 27 17 28 19 19 27 23 24 23 24 23 19 17 10 17 19 15 12 9 4 24 35
21 19 18 15 14 10 3 2 5 6 6 6 7 8 8 10 11 13 19 23 30 31 29 24 28 16 10 16 20 19 31 30 29 31 27 15 15 7 11 5 8 9 12 21 22 26 20
23 20 15 13 10 7 4 1 6 5 5 6 7 9 9 9 10 16 30 37 31 23 18 21 21 14 18 13 15 17 28 31 28 37 27 6 13 5 9 10 8 17 27 29 29 25 38
26 19 14 12 11 8 6 2 4 2 3 5 7 10 9 11 12 16 18 13 10 14 32 21 22 28 12 10 9 14 35 24 34 30 13 26 9 10 17 16 18 15 22 26 30 30 26
25 19 16 14 12 9 8 5 5 2 2 5 6 8 10 15 14 12 9 11 14 14 13 12 16 16 9 15 18 25 35 27 26 13 28 13 8 19 29 28 28 18 24 30 29 29 31
24 21 19 16 14 10 8 6 3 1 3 5 6 6 11 16 18 16 13 14 17 20 9 7 6 7 4 11 5 13 25 20 17 14 19 9 15 37 31 27 31 21 22 25 35 38 28
24 23 23 21 16 7 5 5 3 2 1 3 4 5 13 17 13 7 6 8 25 12 9 10 10 1 4 17 3 19 20 13 11 16 15 10 26 27 28 22 22 23 18 28 30 28 16
25 24 19 18 14 8 5 5 5 5 1 2 5 6 10 9 7 5 7 7 20 5 8 8 9 7 13 13 4 19 28 16 8 16 14 14 26 27 23 31 26 15 28 13 19 27 17
28 24 18 14 11 8 3 5 5 6 1 3 7 14 18 14 8 3 4 17 12 10 4 8 7 8 6 17 12 16 23 26 21 11 18 25 36 13 11 31 18 25 30 27 19 7 9
27 21 17 16 13 9 5 6 7 5 3 5 10 12 8 14 8 5 11 10 9 7 8 12 5 5 4 7 8 11 10 12 8 11 14 16 14 8 51 34 26 28 21 8 8 7 5
27 25 22 25 19 11 7 8 9 6 5 9 10 10 12 8 10 17 11 8 12 10 7 4 5 7 7 6 6 2 6 5 12 13 5 9 14 23 43 25 24 24 10 2 10 6 18
28 24 24 24 18 12 13 10 9 8 9 15 18 17 11 8 13 13 9 9 13 9 7 4 7 6 6 11 4 9 5 7 8 9 8 6 6 31 25 36 15 14 9 16 8 8 10
29 25 25 27 19 17 13 10 10 10 14 19 14 13 6 10 11 13 8 5 5 13 8 3 4 7 8 12 9 9 3 5 9 13 15 8 12 11 28 34 24 21 23 7 7 7 9
30 27 20 24 23 18 12 11 12 13 18 16 14 6 4 7 6 10 7 6 9 15 13 13 11 7 7 9 10 11 6 9 12 5 9 4 7 10 14 12 28 28 9 10 4 6 7
32 31 28 24 22 18 14 12 13 17 23 16 0 7 7 4 8 2 2 3 3 16 9 8 6 3 6 12 7 8 7 8 9 4 9 5 8 4 24 26 21 25 10 6 5 11 4
34 33 28 29 24 18 16 15 17 23 28 14 4 9 9 6 5 4 4 8 8 7 8 9 2 6 7 5 7 9 8 14 14 7 3 4 4 9 12 9 8 4 5 7 7 6 10
31 33 29 28 26 19 17 16 20 27 23 11 4 4 3 3 3 5 9 10 8 7 11 9 4 11 5 4 8 8 12 12 28 29 16 13 10 14 13 20 7 13 14 14 13 5 16
35 34 28 27 26 22 17 17 20 27 25 13 7 6 6 2 6 7 1 4 12 8 7 4 2 11 10 3 8 10 11 16 26 24 17 5 4 6 12 23 30 36 36 36 23 23 15
37 33 30 27 28 23 19 18 22 28 23 10 8 8 5 3 17 11 8 4 6 7 15 10 11 12 9 3 6 10 9 9 6 10 9 7 4 11 30 26 32 36 37 42 32 36 38
36 35 32 30 27 25 20 18 20 29 25 9 10 3 1 6 4 7 9 10 7 5 10 8 5 7 5 5 16 22 28 31 27 11 7 7 2 3 12 16 24 18 16 7 9 22 12
36 33 31 30 31 28 25 22 24 32 24 22 12 9 7 4 3 8 11 11 8 7 9 3 9 7 6 13 26 25 32 35 36 34 36 10 6 5 13 20 4 14 12 3 10 4 5
37 37 34 32 31 29 25 24 26 28 28 21 16 11 8 1 9 15 17 15 6 2 4 9 21 6 6 16 9 12 9 11 9 16 23 37 10 3 4 5 19 18 9 9 9 1 18
40 39 36 36 33 31 27 25 26 28 30 21 18 12 9 7 5 11 12 4 9 7 6 3 17 9 13 9 7 2 5 8 6 6 11 22 24 14 1 3 7 6 12 40 39 4 24
45 45 45 44 39 35 32 25 28 29 30 28 20 20 12 5 6 4 7 5 5 7 6 6 6 13 13 4 3 6 7 7 6 10 6 1 5 13 6 8 11 2 21 42 8 12 19
35 39 42 43 49 44 34 28 24 30 33 33 25 21 18 11 16 16 15 13 15 4 8 13 7 3 6 4 4 7 4 7 5 7 7 9 9 7 3 5 13 17 29 7 15 29 6
28 28 27 33 34 49 37 30 24 27 31 28 25 17 24 20 11 7 14 25 35 19 5 24 11 11 16 5 3 4 5 6 5 6 3 8 9 6 10 12 15 41 44 39 12 23 29
Wind_Direction_850mb
165 154 151 143 147 136 141 128 101 82 66 48 32 11 4 354 350 4 11 18 23 36 52 73 103 118 91 75 48 358 7 23 14 33 27 14 22 5 5 324 327 309 335 323 316 318 318
160 156 157 157 152 147 141 136 111 86 62 39 20 4 350 346 354 4 3 13 22 41 72 99 85 92 74 82 43 20 11 1 15 14 18 20 2 335 291 299 305 319 326 319 312 307 309
162 162 162 160 148 146 152 143 99 75 50 29 11 3 352 348 356 8 15 27 52 69 87 115 90 92 76 64 72 5 26 35 352 5 355 346 331 336 332 315 312 317 307 300 286 293 294
168 168 165 164 150 158 177 111 67 40 38 21 14 11 8 1 4 25 39 68 70 90 107 110 86 83 79 65 56 14 12 14 27 359 340 352 336 294 254 295 301 299 286 313 326 253 257
172 175 176 170 156 156 202 94 73 58 46 28 9 25 21 24 29 56 81 91 84 93 101 100 74 56 63 23 9 56 358 3 3 338 311 277 311 288 297 246 325 285 280 300 304 320 341
180 176 179 170 172 198 238 123 84 59 35 21 17 27 35 48 55 104 105 89 89 71 72 65 67 97 42 15 33 39 359 347 348 342 355 285 209 317 318 47 333 323 325 321 317 325 322
194 206 199 188 189 198 194 192 115 92 37 40 29 39 61 62 77 118 137 115 86 65 66 67 77 90 56 27 349 48 10 6 11 6 22 339 353 306 307 333 318 318 312 308 307 313 313
205 207 189 182 180 183 202 176 156 139 38 41 30 50 89 93 101 122 152 93 92 121 98 94 93 80 59 16 25 12 10 20 1 3 357 8 317 332 327 318 310 318 312 304 308 316 327
204 196 182 183 181 188 209 208 183 127 16 24 28 53 117 119 99 94 122 95 154 143 127 78 140 83 121 28 29 11 23 13 342 5 351 338 305 344 338 339 329 321 307 321 328 332 312
196 187 177 171 178 185 198 191 190 234 333 22 45 83 138 128 92 83 44 147 157 134 84 149 201 127 347 318 120 76 18 35 339 349 338 350 341 318 316 308 305 302 325 313 337 343 309
178 174 182 187 196 197 205 194 212 225 223 36 47 97 126 124 100 127 268 134 154 120 77 236 100 94 334 95 278 56 18 357 3 22 14 289 340 345 353 348 347 312 338 338 300 289 309
181 175 177 187 194 200 212 182 204 208 189 85 101 127 109 76 91 336 113 127 134 58 240 177 156 170 20 85 9 26 10 359 52 26 1 319 306 48 21 343 332 327 346 319 293 240 259
188 188 196 210 210 214 222 193 193 200 169 122 123 136 139 146 192 100 120 80 45 107 256 151 114 78 273 71 55 25 350 54 75 37 349 319 9 105 21 345 337 359 341 336 333 359 239
189 191 202 204 213 210 205 177 185 177 169 130 120 115 86 66 130 126 92 59 75 206 261 57 146 260 213 107 96 301 330 94 79 75 356 355 336 20 339 340 341 322 332 188 297 310 297
199 205 205 206 206 207 174 168 182 163 161 138 116 90 46 32 128 110 93 71 186 225 49 40 280 274 93 116 152 46 330 106 118 107 119 333 263 321 322 354 332 314 7 299 262 277 275
201 211 216 211 205 187 174 178 178 161 155 143 123 122 13 104 99 93 80 186 99 46 82 244 18 50 9 15 33 359 2 150 114 127 145 242 295 321 344 322 335 337 313 4 352 331 304
208 196 183 182 183 189 179 172 172 162 154 152 139 136 15 114 102 79 123 207 103 85 31 18 39 29 10 14 360 350 332 96 83 23 318 43 107 305 341 332 316 321 35 346 305 1 309
182 193 194 200 198 198 177 166 165 158 151 150 68 82 44 187 25 100 170 60 37 121 71 85 43 359 24 22 329 338 353 50 135 55 4 117 161 298 307 301 72 60 7 5 91 314 268
193 201 207 205 204 198 178 168 164 161 157 162 75 95 92 80 113 303 129 85 354 90 166 137 114 112 61 348 331 314 1 317 327 98 30 48 324 341 324 350 354 299 289 225 204 190 228
191 191 192 194 194 192 183 171 165 168 164 136 98 76 124 134 238 244 175 152 144 42 6 87 30 43 352 271 276 304 339 338 356 348 318 190 181 175 260 244 242 305 283 259 202 160 260
191 196 195 197 200 190 185 174 171 171 163 144 137 185 197 193 275 278 250 187 176 143 191 117 352 207 230 257 345 285 311 327 329 328 1 350 211 191 244 264 285 286 286 286 272 251 226
187 184 187 185 180 184 176 166 169 172 155 127 126 144 193 274 149 208 106 314 253 207 157 188 167 279 39 84 222 268 345 11 269 2 349 343 294 321 293 283 280 288 300 283 279 271 262
189 190 189 192 195 193 179 166 167 167 164 126 119 159 123 308 160 133 180 187 213 245 98 158 29 38 3 5 351 315 299 287 269 257 270 271 188 31 264 304 314 300 266 310 318 343 302
193 195 194 195 198 195 186 174 172 173 171 154 116 95 131 276 265 206 192 227 268 146 166 141 178 211 64 348 321 305 282 270 253 239 227 224 210 169 280 312 311 242 354 96 17 44 350
196 197 197 194 194 194 194 185 181 184 180 173 146 135 116 165 326 308 255 171 206 20 225 236 265 145 45 42 17 349 328 4 273 230 215 211 179 220 227 255 269 293 344 332 303 165 319
209 206 203 199 196 194 194 197 191 191 185 172 162 167 155 150 240 308 315 234 169 181 257 184 91 85 64 77 70 209 258 211 299 289 217 216 203 198 196 249 264 252 304 312 298 172 305
212 214 212 209 204 203 202 196 195 199 191 186 176 174 183 198 265 336 5 321 22 124 115 80 121 89 135 115 151 213 245 256 230 187 206 268 329 197 203 227 260 200 319 325 55 249 253
195 199 209 211 210 205 203 201 203 196 193 197 201 198 213 210 252 258 250 287 309 347 141 145 65 168 67 110 160 252 230 249 300 278 279 202 195 211 180 169 268 3 344 342 254 306 352
179 184 194 203 201 199 201 201 201 193 194 200 209 205 214 234 255 249 255 260 248 242 279 180 180 155 160 128 281 328 320 332 306 273 250 285 185 223 193 217 248 306 299 303 1 12 350